SL-12 R/B(2), 20266

Orbit data source: Space-Track

SL-12 R/B(2), 20266 is space debris in GEO originally from a launch on Thu, 28 Sep 1989 UTC launched from the Tyuratam Missile And Space Complex (TTMTR). Debris objects in space refer to the collection of defunct objects orbiting the Earth. Examples of debris include non-operational satellites, rocket bodies, and fragments generated from explosions, collisions, or faulty payload assembly.

Loading next visibility...
Identifier
20266, 1989-081D
Orbit
GEO
Country
Flag of CISCIS
Related business
Manufacturer
NPO Energiya
Mission
Spacecraft
Bus & Motor
BLOK DM, Unknown motor
Mass
2,440 kg wet, 2,440 kg dry
Launch date (UTC)
1989-09-28 (36 years ago)
Launch vehicle
Unknown
Launch site
Tyuratam Missile And Space Complex (TTMTR)
Object type
Payload
Rocket body
Debris
Shape & HBR
Cyl, 3.1 m
Radar Cross Section
23.597 m², Large (>1 m²)

Expand to show TLE details & history
Last TLE update: 12 hours ago

TLE from 12 hours ago
0 SL-12 R/B(2)
1 20266U 89081D   25310.51828933 -.00000281  00000-0  00000+0 0  9993
2 20266  12.1306 334.3778 0025663 124.1975  56.5885  1.00614371117118
Epoch: 2025-11-06T12:26Z
TLE epoch observation values (Epoch: 2025-11-06T12:26:20.198Z)
Latitude
-0.2294°
Longitude
-77.19027°
Altitude
35,631.684 km
Speed
3.083 km/s
True Right ascension
10h 21m 28s
True Declination
0° 13' 45"
Sunlit
Object was in daylight at epoch
Visualization orbit readout
Latitude
Unknown
Longitude
Unknown
Altitude
Unknown
Speed
Unknown
Apparent Right ascension
Unknown
Apparent Declination
Unknown
Sunlit
N/A
Visualization observer readout
Local Sidereal Time
20:18:45
Azimuth
Unknown
Elevation
Unknown
Doppler factor
Unknown
Orbital elements
Apogee altitude
35,799.796 km
Perigee altitude
35,583.867 km
Semi-major axis
42,069.969 km
Eccentricity
0.00257
Inclination
12.1306°
RAAN
334.3778°
Arg. of periapsis
124.1975°
True anomaly
56.83441°
Mean anomaly
56.5885°
Eccentric anomaly
56.71141°
Mean motion
0.25153 °/min
Orbital period
1,431.26 mins
BSTAR
0
Loading maneuver chart data...
Computing Atmospheric mass density...
Loading historical data...
Loading historical data...
Loading historical data...
Loading historical data...
Loading historical data...
Loading historical data...
Loading historical data...

Documentation

Showing up to 5 results
|